TimeMST,TemperatureF,Dew PointF,Humidity,Sea Level PressureIn,VisibilityMPH,Wind Direction,Wind SpeedMPH,Gust SpeedMPH,PrecipitationIn,Events,Conditions,WindDirDegrees,DateUTC
12:52 AM,26.1,17.1,69,30.06,10.0,SSW,15.0,-,N/A,,Clear,210,2013-02-23 07:52:00
1:52 AM,26.1,17.1,69,30.04,10.0,SW,18.4,-,N/A,,Clear,220,2013-02-23 08:52:00
2:52 AM,28.0,17.1,63,30.00,10.0,SSW,19.6,-,N/A,,Clear,210,2013-02-23 09:52:00
3:52 AM,28.9,17.1,61,29.96,10.0,SSW,18.4,-,N/A,,Overcast,210,2013-02-23 10:52:00
4:52 AM,30.0,17.1,59,29.93,10.0,SSW,16.1,-,N/A,,Overcast,210,2013-02-23 11:52:00
5:52 AM,30.9,17.1,57,29.90,10.0,SSW,19.6,24.2,N/A,,Overcast,210,2013-02-23 12:52:00
6:52 AM,30.0,17.1,59,29.88,10.0,SW,23.0,-,N/A,,Clear,220,2013-02-23 13:52:00
7:52 AM,30.0,18.0,61,29.88,10.0,SSW,18.4,-,N/A,,Mostly Cloudy,200,2013-02-23 14:52:00
8:52 AM,35.1,19.0,52,29.82,10.0,South,21.9,31.1,N/A,,Clear,190,2013-02-23 15:52:00
9:52 AM,39.0,17.1,41,29.79,10.0,SSW,26.5,38.0,N/A,,Mostly Cloudy,200,2013-02-23 16:52:00
10:52 AM,41.0,16.0,36,29.85,10.0,SW,25.3,36.8,0.00,,Overcast,220,2013-02-23 17:52:00
11:17 AM,37.4,26.6,65,29.86,10.0,WNW,19.6,28.8,0.00,Rain,Light Rain,290,2013-02-23 18:17:00
11:52 AM,37.9,21.9,53,29.90,10.0,WNW,19.6,34.5,0.00,,Overcast,300,2013-02-23 18:52:00
12:45 PM,33.8,26.6,75,29.86,10.0,North,13.8,-,N/A,,Overcast,10,2013-02-23 19:45:00
12:52 PM,33.1,27.0,78,29.90,9.0,North,17.3,-,N/A,,Overcast,360,2013-02-23 19:52:00
12:58 PM,32.0,26.6,80,29.87,1.8,NNE,17.3,-,0.00,Snow,Light Snow,20,2013-02-23 19:58:00
1:00 PM,30.2,26.6,86,29.87,1.0,NNE,15.0,23.0,0.00,Snow,Light Snow,20,2013-02-23 20:00:00
1:02 PM,30.2,26.6,86,29.87,0.8,NNE,13.8,23.0,0.00,Snow,Light Snow,30,2013-02-23 20:02:00
1:13 PM,30.2,26.6,86,29.88,0.8,NNE,13.8,-,0.00,Snow,Light Snow,30,2013-02-23 20:13:00
1:19 PM,30.2,26.6,86,29.87,1.5,NNE,13.8,-,0.00,Snow,Light Snow,30,2013-02-23 20:19:00
1:21 PM,30.2,26.6,86,29.87,2.0,NNE,13.8,-,0.00,Snow,Light Snow,30,2013-02-23 20:21:00
1:26 PM,30.2,26.6,86,29.87,1.2,NNE,15.0,-,0.00,Snow,Light Snow,20,2013-02-23 20:26:00
1:34 PM,28.4,26.6,93,29.87,0.8,NNE,13.8,-,0.00,Snow,Light Snow,20,2013-02-23 20:34:00
1:39 PM,30.2,26.6,86,29.86,1.5,NNE,12.7,-,0.00,Snow,Light Snow,30,2013-02-23 20:39:00
1:41 PM,30.2,26.6,86,29.86,2.0,NNE,12.7,-,0.00,Snow,Light Snow,30,2013-02-23 20:41:00
1:52 PM,30.0,26.1,85,29.92,1.8,North,11.5,-,0.00,Snow,Light Snow,10,2013-02-23 20:52:00
1:58 PM,30.2,26.6,86,29.87,3.0,North,12.7,19.6,0.00,Snow,Light Snow,10,2013-02-23 20:58:00
2:12 PM,30.2,24.8,80,29.86,9.0,NNE,17.3,-,0.00,,Overcast,20,2013-02-23 21:12:00
2:52 PM,32.0,23.0,69,29.92,10.0,NNE,18.4,-,0.00,,Mostly Cloudy,20,2013-02-23 21:52:00
3:52 PM,34.0,21.0,59,29.91,10.0,NE,10.4,-,N/A,,Mostly Cloudy,40,2013-02-23 22:52:00
4:52 PM,34.0,19.0,54,29.91,10.0,NNE,12.7,-,N/A,,Mostly Cloudy,20,2013-02-23 23:52:00
5:52 PM,28.9,19.0,67,29.94,10.0,North,11.5,-,N/A,,Mostly Cloudy,360,2013-02-24 00:52:00
6:45 PM,28.4,19.4,69,29.94,5.0,NNE,12.7,20.7,0.00,Snow,Light Snow,20,2013-02-24 01:45:00
6:52 PM,27.0,21.0,78,29.99,5.0,NE,12.7,-,0.00,Snow,Light Snow,40,2013-02-24 01:52:00
7:03 PM,26.6,21.2,80,29.95,9.0,NNE,6.9,-,0.00,,Overcast,20,2013-02-24 02:03:00
7:52 PM,27.0,21.9,81,30.01,9.0,North,5.8,-,0.00,Snow,Light Snow,350,2013-02-24 02:52:00
8:52 PM,26.1,19.9,78,30.02,10.0,North,6.9,-,0.00,,Overcast,10,2013-02-24 03:52:00
9:52 PM,24.1,17.1,75,30.02,10.0,North,3.5,-,N/A,,Mostly Cloudy,360,2013-02-24 04:52:00
10:52 PM,21.9,15.1,75,30.02,10.0,NNW,9.2,-,N/A,,Mostly Cloudy,340,2013-02-24 05:52:00
11:52 PM,19.9,14.0,78,30.04,10.0,NW,6.9,-,N/A,,Clear,320,2013-02-24 06:52:00